SCP
0 0 0 0 -0 -0 -0 -0 -0 0 -0 0 0 0 0 0 0 -0 -0 0 0 -0 -0 -0 -0 -0 -0 -0 -0 -0 -0 -0 -0 -0 -0 -0 -0 -0 -0 -0 -0 -0 -0
-0 0 0 -0 -0 -0 -0 -0 -0 0 0 -0 -0 -0 -0 -0 -0 -0 0 0 0 0 0 -0 -0 -0 -0 -0 -0 -0 -0 -0 -0 -0 -0 -0 -0 -0 -0 -0 -0 -0 -0
-0 -0 -0 0 -0 -0 -0 -0 -0 -0 -0 -0 -0 -0 -0 -0 -0 -0 -0 -0 -0 -0 -0 -0 -0 -0 -0 -0 -0 -0 -0 -0 -0 0 -0 -0 -0 -0 -0 -0 -0 -0 -0
-0 -0 -0 -0 -0 -0 -0 -0 -0 -0 -0 -0 -0 -0 -0 -0 -0 -0 -0 -0 -0 -0 -0 -0 -0 -0 -0 -0 -0 -0 -0 -0 -0 -0 -0 -0 -0 -0 -0 -0 -0 -0 -0
-0 -0 -0 -0 -0 -0 -0 -0 -0 -0 -0 -0 -0 -0 -0 -0 -0 -0 -0 -0 -0 -0 -0 -0 -0 -0 -0 -0 -0 -0 -0 -0 -0 -0 -0 -0 -0 -0 -0 -0 -0 -0 -0
-0 -0 -0 -0 -0 -0 -0 -0 -0 -0 -0 -0 -0 -0 -0 -0 -0 -0 -0 -0 -0 -0 -0 -0 -0 -0 -0 -0 -0 -0 -0 -0 -0 -0 -0 -0 -0 -0 -0 -0 -0 -0 -0
-0 -0 -0 -0 -0 -0 -0 -0 -0 -0 -0 -0 -0 -0 -0 -0 -0 -0 -0 -0 -0 -0 -0 -0 -0 -0 -0 -0 -0 -0 -0 -0 -0 -0 -0 -0 -0 -0 -0 -0 -0 -0 -0
-0 -0 -0 -0 -0 -0 -0 -0 -0 -0 -0 -0 -0 -0 -0 -0 -0 -0 -0 -0 -0 -0 -0 -0 -0 -0 -0 -0 -0 -0 -0 0 -0 -0 -0 -0 -0 -0 -0 -0 -0 -0 -0
-0 -0 -0 -0 -0 -0 -0 -0 -0 -0 -0 -0 -0 -0 -0 -0 -0 -0 -0 -0 -0 -0 -0 -0 -0 -0 -0 -0 -0 -0 -0 0 -0 0 0 0 -0 -0 -0 -0 -0 -0 -0
-0 -0 -0 -0 -0 -0 -0 -0 -0 -0 -0 -0 -0 -0 -0 -0 -0 -0 -0 -0 -0 -0 -0 -0 -0 -0 -0 -0 -0 -0 0 0 -0 -0 0 0 -0 -0 -0 -0 0 0 -0
-0 -0 -0 -0 -0 -0 -0 -0 -0 -0 -0 -0 -0 -0 -0 -0 -0 -0 -0 -0 -0 -0 -0 -0 -0 -0 -0 -0 -0 -0 0 0 0 0 0 0 -0 -0 0 0 -0 -0 -0
-0 -0 -0 -0 -0 -0 0 0 0 0 0 0 0 0 0 0 0 0 -0 -0 -0 -0 -0 -0 -0 -0 0 0 0 0 0 0 0 0 0 0 0 0 -0 -0 -0 -0 -0
-0 0 0 0 0 0 0 0 0 0 0 0 0 0 0 0 0 0 0 0 0 0 0 0 0 0 0 0 0 0 0 0 0 0 0 0 0 -0 -0 -0 -0 -0 -0
-0 0 0 0 0 0 0 0 0 0 0 0 0 0 0 0 0 0 0 0 0 0 0 0 0 0 0 0 0 0 0 0 0 0 0 0 0 0 -0 0 0 0 0
0 0 0 0 0 0 0 0 0 0 0 0 0 0 0 0 0 0 0 0 0 0 0 0 0 0 0 0 0 0 0 0 0 0 0 0 0 0 0 0 0 0 0
0 0 0 0 0 0 0 0 0 0 0 0 0 0 0 0 0 0 0 0 0 0 0 0 0 0 0 0 0 0 0 0 0 0 0 0 0 0 0 0 0 0 0
0 0 0 0 0 0 0 0 0 0 0 0 0 0 0 0 0 0 0 0 0 0 0 0 0 0 0 0 0 0 0 0 0 0 0 0 0 0 0 0 0 0 0
0 0 0 0 0 0 0 0 0 0 0 0 0 0 0 0 0 0 0 0 0 0 0 0 0 0 0 0 0 0 0 0 0 0 0 0 0 0 0 0 0 0 0
0 0 0 0 0 0 0 0 0 0 0 0 0 0 0 0 0 0 0 0 0 0 0 0 0 0 0 0 0 0 0 0 0 0 0 0 0 0 0 0 0 0 0
0 0 0 0 0 0 0 0 0 0 0 0 0 0 0 0 0 0 0 0 0 0 0 0 0 0 0 0 0 0 0 0 0 0 0 0 0 0 0 0 0 0 0
0 0 0 0 0 0 0 0 0 0 0 0 0 0 0 0 0 0 0 0 0 0 0 0 0 0 0 0 0 0 0 0 0 0 0 0 0 0 0 0 0 0 0
0 0 0 0 0 0 0 0 0 0 0 0 0 0 0 0 0 0 0 0 0 0 0 0 0 0 0 0 0 0 0 0 0 0 0 0 0 0 0 0 0 0 0
0 0 0 0 0 0 0 0 0 0 0 0 0 0 0 0 0 0 0 0 0 0 0 0 0 0 0 0 0 0 0 0 0 0 0 0 0 0 0 0 0 0 0
0 0 0 0 0 0 0 0 0 0 0 0 0 0 0 0 0 0 0 0 0 0 0 0 0 0 0 0 0 0 0 0 0 0 0 0 0 0 0 0 0 0 0
0 0 0 0 0 0 0 0 0 0 0 0 0 0 0 0 0 0 0 0 0 0 0 0 0 0 0 0 0 0 0 0 0 0 0 0 0 0 0 0 0 0 0
0 0 0 0 0 0 0 0 0 0 0 0 0 0 0 0 0 0 0 0 0 0 0 0 0 0 0 0 0 0 0 0 0 0 0 0 0 0 0 0 0 0 0
Wind_Speed_500mb
39 39 35 27 24 23 20 21 21 20 22 23 24 24 23 23 23 24 25 27 32 33 28 37 33 34 36 39 37 35 34 33 31 29 26 24 23 24 27 30 40 42 42
42 39 35 29 26 25 22 20 19 20 21 21 25 26 26 26 26 25 26 29 32 32 35 36 30 34 33 35 37 36 35 34 34 31 31 29 26 24 22 21 23 30 35
41 39 33 29 28 26 22 18 16 19 19 22 24 27 28 28 26 24 25 26 30 28 35 31 29 30 30 31 33 32 34 35 36 34 42 39 34 31 29 27 25 25 25
39 40 35 32 28 26 22 18 15 16 19 21 23 25 26 26 24 23 22 23 26 30 33 28 28 26 25 28 29 31 36 37 34 39 39 39 40 36 32 31 29 26 24
38 38 36 32 29 26 23 19 13 12 15 18 22 23 23 23 22 21 21 21 22 25 31 28 25 21 22 24 28 30 34 34 35 42 42 39 40 40 37 33 31 28 25
39 36 34 32 29 25 22 18 13 11 13 16 20 20 20 20 18 18 19 20 19 20 24 20 17 18 19 22 25 28 31 31 37 42 41 42 42 41 46 38 35 31 28
41 38 33 31 29 26 24 20 17 13 13 14 15 16 18 19 18 18 18 19 19 18 17 17 16 17 19 21 25 27 29 30 38 41 41 43 42 45 43 44 44 44 44
42 42 37 33 30 27 23 21 18 16 13 13 12 13 15 17 17 17 17 18 18 19 18 18 18 18 20 22 25 26 28 31 38 41 39 45 42 42 46 44 49 44 44
39 41 39 36 33 29 24 22 20 18 16 15 13 11 12 16 17 18 19 19 18 18 18 19 20 20 21 22 23 23 24 28 36 37 35 35 30 35 35 36 42 41 39
41 40 38 37 36 32 27 24 23 21 18 18 15 11 10 14 16 19 21 20 18 17 17 18 18 18 19 20 21 22 24 30 36 37 38 39 40 39 39 43 41 38 32
47 46 43 41 39 33 28 23 18 17 19 21 20 15 12 11 12 14 18 20 19 19 19 19 18 18 18 21 22 22 21 31 36 43 42 36 36 40 46 48 47 44 39
54 52 48 46 42 37 33 31 25 25 22 23 23 19 13 10 8 5 11 15 15 15 17 18 19 20 19 22 24 21 26 29 33 38 40 35 39 44 44 40 42 41 38
51 56 55 50 47 42 42 38 34 33 30 28 26 19 17 16 14 10 6 2 4 7 7 11 15 17 18 20 20 21 24 24 29 35 38 43 44 43 38 33 31 28 27
57 54 54 54 51 49 48 42 43 40 40 36 33 29 28 21 20 20 18 15 10 6 3 6 11 13 15 17 18 19 21 24 27 32 28 27 40 44 45 43 44 45 48
59 60 56 51 53 52 52 52 48 43 45 39 41 38 35 30 30 26 23 19 17 15 8 10 12 14 15 16 18 19 23 26 27 30 31 28 31 39 38 39 38 36 35
62 63 61 59 53 52 55 56 54 55 48 46 46 46 42 39 36 31 30 28 24 24 20 20 19 17 18 20 21 23 25 27 27 29 31 26 24 24 24 23 21 27 36
66 65 66 63 61 60 55 61 62 63 60 54 48 50 49 47 45 39 37 35 33 30 29 26 22 19 22 24 22 27 28 27 26 25 23 21 17 13 11 9 11 29 33
68 69 66 66 65 63 62 61 66 71 68 65 60 57 57 54 52 47 46 44 42 39 37 30 25 25 27 28 27 31 29 27 25 22 19 16 12 9 9 12 14 17 18
70 69 70 69 69 67 65 65 66 66 70 69 70 66 63 62 59 61 52 48 48 44 45 37 32 31 36 36 37 35 32 29 25 20 15 11 9 8 10 13 11 12 16
72 74 74 74 72 68 66 67 70 72 70 69 73 73 68 64 64 62 57 58 60 53 53 45 40 40 39 41 45 40 35 29 22 18 13 11 9 9 9 9 8 14 20
74 79 81 80 78 75 73 72 74 76 76 78 77 75 77 72 70 69 62 66 65 44 59 49 45 47 53 52 52 43 34 28 23 20 16 12 10 8 7 6 11 16 19
77 81 83 84 81 78 75 72 74 74 74 75 73 75 74 71 73 68 71 70 71 59 62 55 52 55 57 58 52 40 24 22 25 23 19 16 12 7 3 4 9 14 17
79 84 85 85 83 80 76 74 76 70 70 71 72 77 75 74 77 70 66 69 73 66 71 64 57 65 69 71 59 30 18 17 34 28 24 20 15 10 5 1 5 9 11
75 77 83 86 86 83 79 80 77 77 77 75 73 71 66 72 64 72 73 76 73 74 74 64 60 68 71 70 67 56 28 25 21 21 31 26 21 17 11 6 3 5 9
58 70 78 86 88 86 84 80 78 76 73 72 73 68 67 74 70 71 63 90 70 78 64 72 67 77 73 70 66 61 48 34 31 19 24 35 31 24 18 13 8 4 5
47 54 66 77 84 85 85 82 79 76 74 75 73 71 73 72 72 73 68 68 71 66 60 67 73 74 71 69 66 54 51 46 43 31 19 30 25 28 24 18 13 9 6
Wind_Direction_500mb
179 175 165 157 148 142 137 127 112 93 81 74 77 75 80 92 97 98 98 94 93 93 91 85 88 82 79 79 82 84 84 82 84 85 84 90 93 87 81 82 82 75 71
169 170 162 159 156 150 147 136 111 95 84 77 77 76 78 88 96 95 93 94 94 93 87 95 92 88 80 81 79 81 83 82 84 89 84 82 83 85 86 83 85 84 77
167 168 165 163 160 156 154 133 120 104 95 91 81 75 75 81 89 94 97 98 97 94 95 98 94 88 86 84 79 78 81 83 84 88 77 70 73 77 79 84 84 81 80
166 169 169 165 163 162 161 150 130 112 98 90 87 82 81 83 87 91 94 95 98 98 97 100 96 93 90 84 79 81 84 84 86 83 73 69 68 71 74 78 81 84 78
169 169 170 168 170 170 169 164 144 116 101 96 93 90 83 82 86 91 94 98 102 105 106 104 104 99 89 80 80 84 84 84 85 76 74 71 68 66 68 74 73 72 70
174 175 174 174 177 175 173 171 160 134 118 106 100 91 81 82 87 89 93 95 98 102 112 117 105 100 90 84 85 86 87 88 81 74 72 69 69 67 66 65 71 70 68
178 180 180 180 182 180 180 177 171 161 139 118 112 92 84 80 86 94 97 97 98 103 109 112 107 96 94 92 92 88 86 83 82 79 74 71 65 64 62 64 61 65 62
182 182 185 187 188 189 187 183 180 178 159 136 127 106 88 82 88 95 95 96 97 98 103 104 103 101 94 89 86 87 85 84 80 76 77 86 91 82 76 69 66 61 61
184 187 187 190 191 193 193 190 187 187 174 165 157 127 92 91 91 95 94 92 92 95 97 96 95 95 91 92 91 89 88 87 80 76 73 71 92 83 85 83 83 76 74
186 190 195 196 195 195 195 196 194 191 187 180 171 151 114 106 93 83 84 84 86 91 95 96 98 98 100 99 95 91 89 86 78 76 74 75 72 72 73 74 74 73 77
191 195 197 201 200 199 199 198 205 207 199 189 182 169 142 128 118 98 87 85 89 95 99 99 98 95 95 95 94 93 97 88 95 94 91 84 79 76 75 71 69 71 66
196 197 201 204 206 203 200 208 207 214 225 202 193 181 183 185 184 140 108 82 81 86 95 97 99 100 104 106 104 104 96 99 96 101 98 90 84 86 87 92 90 83 79
199 203 204 206 208 205 205 209 213 212 219 215 206 218 210 212 211 213 209 183 58 75 88 114 119 121 120 118 119 112 108 110 105 108 104 98 92 89 93 99 101 97 78
207 207 207 206 206 209 212 214 216 215 217 221 223 220 215 218 226 219 215 213 205 194 237 174 153 143 139 133 126 118 119 119 116 111 109 109 97 88 84 82 78 78 75
213 212 215 213 208 211 216 211 221 224 220 223 225 222 224 221 227 223 230 225 220 214 215 247 197 171 160 150 140 134 131 127 123 118 112 108 103 97 92 86 80 73 66
217 217 218 220 219 216 214 217 220 225 227 223 222 226 230 228 228 230 226 228 226 216 211 210 209 189 174 156 154 143 138 131 128 125 124 121 116 110 88 76 62 62 68
223 221 222 224 227 227 225 221 219 220 228 230 230 231 234 235 233 232 233 228 221 226 217 207 222 199 180 167 166 151 143 137 134 132 127 119 110 97 85 76 71 75 73
228 227 227 228 231 232 232 230 225 221 222 228 227 232 234 237 237 234 238 227 226 218 225 218 234 221 194 180 176 160 153 147 141 134 127 121 118 110 101 88 70 60 40
232 230 230 231 233 235 235 234 235 231 224 225 224 225 231 237 237 238 236 230 236 228 222 222 229 216 195 185 179 167 159 155 149 140 134 132 128 118 95 88 69 56 48
233 232 233 234 235 236 236 234 234 235 234 226 226 225 225 232 233 239 235 231 238 219 231 218 215 207 206 196 177 168 162 160 154 150 157 158 145 122 103 91 73 52 51
236 234 234 235 235 234 236 236 236 234 232 231 226 226 226 227 233 233 235 235 236 241 216 219 217 215 199 194 182 166 162 164 167 172 173 167 156 145 119 79 49 43 38
240 237 234 236 236 237 238 238 237 236 233 232 225 225 224 224 230 229 235 226 223 234 211 217 216 208 205 195 189 170 161 173 184 185 185 182 176 164 135 52 34 27 24
241 239 236 236 237 238 236 234 236 235 234 229 223 226 226 226 229 224 233 235 228 230 220 218 224 221 208 196 194 182 168 190 186 194 194 193 191 189 203 307 7 11 12
247 243 240 238 236 236 235 237 237 237 235 234 232 229 229 218 221 234 236 239 225 229 217 217 234 223 215 209 201 205 206 203 179 183 201 203 201 203 207 221 274 349 9
247 243 241 237 235 235 235 237 238 237 237 236 234 232 227 231 226 227 236 225 222 217 223 230 225 216 216 216 212 213 218 217 205 189 187 203 204 206 212 218 235 295 341
237 235 236 236 236 235 236 237 237 237 234 234 231 231 227 227 224 229 224 221 219 226 237 231 221 218 215 214 218 225 230 220 217 208 188 191 200 210 214 219 233 256 267
Wind_Speed_850mb
39 39 35 27 24 23 20 21 21 20 22 23 24 24 23 23 23 24 25 27 32 33 28 37 33 34 36 39 37 35 34 33 31 29 26 24 23 24 27 30 40 42 42
42 39 35 29 26 25 22 20 19 20 21 21 25 26 26 26 26 25 26 29 32 32 35 36 30 34 33 35 37 36 35 34 34 31 31 29 26 24 22 21 23 30 35
41 39 33 29 28 26 22 18 16 19 19 22 24 27 28 28 26 24 25 26 30 28 35 31 29 30 30 31 33 32 34 35 36 34 42 39 34 31 29 27 25 25 25
39 40 35 32 28 26 22 18 15 16 19 21 23 25 26 26 24 23 22 23 26 30 33 28 28 26 25 28 29 31 36 37 34 39 39 39 40 36 32 31 29 26 24
38 38 36 32 29 26 23 19 13 12 15 18 22 23 23 23 22 21 21 21 22 25 31 28 25 21 22 24 28 30 34 34 35 42 42 39 40 40 37 33 31 28 25
39 36 34 32 29 25 22 18 13 11 13 16 20 20 20 20 18 18 19 20 19 20 24 20 17 18 19 22 25 28 31 31 37 42 41 42 42 41 46 38 35 31 28
41 38 33 31 29 26 24 20 17 13 13 14 15 16 18 19 18 18 18 19 19 18 17 17 16 17 19 21 25 27 29 30 38 41 41 43 42 45 43 44 44 44 44
42 42 37 33 30 27 23 21 18 16 13 13 12 13 15 17 17 17 17 18 18 19 18 18 18 18 20 22 25 26 28 31 38 41 39 45 42 42 46 44 49 44 44
39 41 39 36 33 29 24 22 20 18 16 15 13 11 12 16 17 18 19 19 18 18 18 19 20 20 21 22 23 23 24 28 36 37 35 35 30 35 35 36 42 41 39
41 40 38 37 36 32 27 24 23 21 18 18 15 11 10 14 16 19 21 20 18 17 17 18 18 18 19 20 21 22 24 30 36 37 38 39 40 39 39 43 41 38 32
47 46 43 41 39 33 28 23 18 17 19 21 20 15 12 11 12 14 18 20 19 19 19 19 18 18 18 21 22 22 21 31 36 43 42 36 36 40 46 48 47 44 39
54 52 48 46 42 37 33 31 25 25 22 23 23 19 13 10 8 5 11 15 15 15 17 18 19 20 19 22 24 21 26 29 33 38 40 35 39 44 44 40 42 41 38
51 56 55 50 47 42 42 38 34 33 30 28 26 19 17 16 14 10 6 2 4 7 7 11 15 17 18 20 20 21 24 24 29 35 38 43 44 43 38 33 31 28 27
57 54 54 54 51 49 48 42 43 40 40 36 33 29 28 21 20 20 18 15 10 6 3 6 11 13 15 17 18 19 21 24 27 32 28 27 40 44 45 43 44 45 48
59 60 56 51 53 52 52 52 48 43 45 39 41 38 35 30 30 26 23 19 17 15 8 10 12 14 15 16 18 19 23 26 27 30 31 28 31 39 38 39 38 36 35
62 63 61 59 53 52 55 56 54 55 48 46 46 46 42 39 36 31 30 28 24 24 20 20 19 17 18 20 21 23 25 27 27 29 31 26 24 24 24 23 21 27 36
66 65 66 63 61 60 55 61 62 63 60 54 48 50 49 47 45 39 37 35 33 30 29 26 22 19 22 24 22 27 28 27 26 25 23 21 17 13 11 9 11 29 33
68 69 66 66 65 63 62 61 66 71 68 65 60 57 57 54 52 47 46 44 42 39 37 30 25 25 27 28 27 31 29 27 25 22 19 16 12 9 9 12 14 17 18
70 69 70 69 69 67 65 65 66 66 70 69 70 66 63 62 59 61 52 48 48 44 45 37 32 31 36 36 37 35 32 29 25 20 15 11 9 8 10 13 11 12 16
72 74 74 74 72 68 66 67 70 72 70 69 73 73 68 64 64 62 57 58 60 53 53 45 40 40 39 41 45 40 35 29 22 18 13 11 9 9 9 9 8 14 20
74 79 81 80 78 75 73 72 74 76 76 78 77 75 77 72 70 69 62 66 65 44 59 49 45 47 53 52 52 43 34 28 23 20 16 12 10 8 7 6 11 16 19
77 81 83 84 81 78 75 72 74 74 74 75 73 75 74 71 73 68 71 70 71 59 62 55 52 55 57 58 52 40 24 22 25 23 19 16 12 7 3 4 9 14 17
79 84 85 85 83 80 76 74 76 70 70 71 72 77 75 74 77 70 66 69 73 66 71 64 57 65 69 71 59 30 18 17 34 28 24 20 15 10 5 1 5 9 11
75 77 83 86 86 83 79 80 77 77 77 75 73 71 66 72 64 72 73 76 73 74 74 64 60 68 71 70 67 56 28 25 21 21 31 26 21 17 11 6 3 5 9
58 70 78 86 88 86 84 80 78 76 73 72 73 68 67 74 70 71 63 90 70 78 64 72 67 77 73 70 66 61 48 34 31 19 24 35 31 24 18 13 8 4 5
47 54 66 77 84 85 85 82 79 76 74 75 73 71 73 72 72 73 68 68 71 66 60 67 73 74 71 69 66 54 51 46 43 31 19 30 25 28 24 18 13 9 6
Wind_Direction_850mb
179 175 165 157 148 142 137 127 112 93 81 74 77 75 80 92 97 98 98 94 93 93 91 85 88 82 79 79 82 84 84 82 84 85 84 90 93 87 81 82 82 75 71
169 170 162 159 156 150 147 136 111 95 84 77 77 76 78 88 96 95 93 94 94 93 87 95 92 88 80 81 79 81 83 82 84 89 84 82 83 85 86 83 85 84 77
167 168 165 163 160 156 154 133 120 104 95 91 81 75 75 81 89 94 97 98 97 94 95 98 94 88 86 84 79 78 81 83 84 88 77 70 73 77 79 84 84 81 80
166 169 169 165 163 162 161 150 130 112 98 90 87 82 81 83 87 91 94 95 98 98 97 100 96 93 90 84 79 81 84 84 86 83 73 69 68 71 74 78 81 84 78
169 169 170 168 170 170 169 164 144 116 101 96 93 90 83 82 86 91 94 98 102 105 106 104 104 99 89 80 80 84 84 84 85 76 74 71 68 66 68 74 73 72 70
174 175 174 174 177 175 173 171 160 134 118 106 100 91 81 82 87 89 93 95 98 102 112 117 105 100 90 84 85 86 87 88 81 74 72 69 69 67 66 65 71 70 68
178 180 180 180 182 180 180 177 171 161 139 118 112 92 84 80 86 94 97 97 98 103 109 112 107 96 94 92 92 88 86 83 82 79 74 71 65 64 62 64 61 65 62
182 182 185 187 188 189 187 183 180 178 159 136 127 106 88 82 88 95 95 96 97 98 103 104 103 101 94 89 86 87 85 84 80 76 77 86 91 82 76 69 66 61 61
184 187 187 190 191 193 193 190 187 187 174 165 157 127 92 91 91 95 94 92 92 95 97 96 95 95 91 92 91 89 88 87 80 76 73 71 92 83 85 83 83 76 74
186 190 195 196 195 195 195 196 194 191 187 180 171 151 114 106 93 83 84 84 86 91 95 96 98 98 100 99 95 91 89 86 78 76 74 75 72 72 73 74 74 73 77
191 195 197 201 200 199 199 198 205 207 199 189 182 169 142 128 118 98 87 85 89 95 99 99 98 95 95 95 94 93 97 88 95 94 91 84 79 76 75 71 69 71 66
196 197 201 204 206 203 200 208 207 214 225 202 193 181 183 185 184 140 108 82 81 86 95 97 99 100 104 106 104 104 96 99 96 101 98 90 84 86 87 92 90 83 79
199 203 204 206 208 205 205 209 213 212 219 215 206 218 210 212 211 213 209 183 58 75 88 114 119 121 120 118 119 112 108 110 105 108 104 98 92 89 93 99 101 97 78
207 207 207 206 206 209 212 214 216 215 217 221 223 220 215 218 226 219 215 213 205 194 237 174 153 143 139 133 126 118 119 119 116 111 109 109 97 88 84 82 78 78 75
213 212 215 213 208 211 216 211 221 224 220 223 225 222 224 221 227 223 230 225 220 214 215 247 197 171 160 150 140 134 131 127 123 118 112 108 103 97 92 86 80 73 66
217 217 218 220 219 216 214 217 220 225 227 223 222 226 230 228 228 230 226 228 226 216 211 210 209 189 174 156 154 143 138 131 128 125 124 121 116 110 88 76 62 62 68
223 221 222 224 227 227 225 221 219 220 228 230 230 231 234 235 233 232 233 228 221 226 217 207 222 199 180 167 166 151 143 137 134 132 127 119 110 97 85 76 71 75 73
228 227 227 228 231 232 232 230 225 221 222 228 227 232 234 237 237 234 238 227 226 218 225 218 234 221 194 180 176 160 153 147 141 134 127 121 118 110 101 88 70 60 40
232 230 230 231 233 235 235 234 235 231 224 225 224 225 231 237 237 238 236 230 236 228 222 222 229 216 195 185 179 167 159 155 149 140 134 132 128 118 95 88 69 56 48
233 232 233 234 235 236 236 234 234 235 234 226 226 225 225 232 233 239 235 231 238 219 231 218 215 207 206 196 177 168 162 160 154 150 157 158 145 122 103 91 73 52 51
236 234 234 235 235 234 236 236 236 234 232 231 226 226 226 227 233 233 235 235 236 241 216 219 217 215 199 194 182 166 162 164 167 172 173 167 156 145 119 79 49 43 38
240 237 234 236 236 237 238 238 237 236 233 232 225 225 224 224 230 229 235 226 223 234 211 217 216 208 205 195 189 170 161 173 184 185 185 182 176 164 135 52 34 27 24
241 239 236 236 237 238 236 234 236 235 234 229 223 226 226 226 229 224 233 235 228 230 220 218 224 221 208 196 194 182 168 190 186 194 194 193 191 189 203 307 7 11 12
247 243 240 238 236 236 235 237 237 237 235 234 232 229 229 218 221 234 236 239 225 229 217 217 234 223 215 209 201 205 206 203 179 183 201 203 201 203 207 221 274 349 9
247 243 241 237 235 235 235 237 238 237 237 236 234 232 227 231 226 227 236 225 222 217 223 230 225 216 216 216 212 213 218 217 205 189 187 203 204 206 212 218 235 295 341
237 235 236 236 236 235 236 237 237 237 234 234 231 231 227 227 224 229 224 221 219 226 237 231 221 218 215 214 218 225 230 220 217 208 188 191 200 210 214 219 233 256 267